GW3011 Weather Reports


time (UTC)temp
F
wind
direction
speed
knots
gust
knots
rain 1hr
in
rain 24hr
in
rain mn
in
humidity
%
barometer
mb
20260504033151 56 316 1.7 1.7 0.00 0.00 0.00 43 1011.8
20260504032647 56 209 2.6 5.2 0.00 0.00 0.00 43 1011.7
20260504032144 55 329 2.6 6.1 0.00 0.00 0.00 43 1011.8
20260504031642 56 307 0.0 0.9 0.00 0.00 0.00 43 1011.6
20260504031138 56 183 5.2 7.0 0.00 0.00 0.00 43 1011.7
20260504030635 56 269 4.3 6.1 0.00 0.00 0.00 43 1011.7
20260504030131 56 238 1.7 2.6 0.00 0.00 0.00 43 1011.8
20260504025628 56 310 1.7 2.6 0.00 0.00 0.00 41 1011.7
20260504025125 57 203 1.7 2.6 0.00 0.00 0.00 41 1011.6
20260504024622 56 174 5.2 7.0 0.00 0.00 0.00 41 1011.6
20260504024119 57 190 0.9 1.7 0.00 0.00 0.00 41 1011.7
20260504023616 57 266 0.9 0.9 0.00 0.00 0.00 40 1011.8
20260504023111 57 305 0.9 0.9 0.00 0.00 0.00 40 1011.9
20260504022608 57 207 4.3 7.0 0.00 0.00 0.00 40 1011.7
20260504022104 57 162 1.7 3.5 0.00 0.00 0.00 40 1011.9
20260504021602 57 294 3.5 3.5 0.00 0.00 0.00 39 1011.8
20260504021058 57 181 4.3 5.2 0.00 0.00 0.00 40 1011.7
20260504020555 57 179 2.6 3.5 0.00 0.00 0.00 40 1011.6
20260504020051 57 283 0.9 1.7 0.00 0.00 0.00 41 1011.9
20260504015548 57 268 2.6 3.5 0.00 0.00 0.00 41 1011.9
20260504015044 57 276 0.9 1.7 0.00 0.00 0.00 39 1011.7
20260504014540 57 210 1.7 1.7 0.00 0.00 0.00 39 1011.6
20260504014038 57 313 0.0 0.9 0.00 0.00 0.00 38 1012.0
20260504013535 57 191 2.6 2.6 0.00 0.00 0.00 37 1011.6
20260504013032 57 288 1.7 1.7 0.00 0.00 0.00 37 1011.4
20260504012529 58 226 1.7 2.6 0.00 0.00 0.00 37 1011.5
20260504012022 58 249 1.7 3.5 0.00 0.00 0.00 37 1011.6
20260504011518 58 220 0.9 1.7 0.00 0.00 0.00 36 1011.4
20260504011014 58 90 2.6 3.5 0.00 0.00 0.00 36 1011.2
20260504010510 58 0 0.9 1.7 0.00 0.00 0.00 36 1011.2
20260504010006 58 317 2.6 3.5 0.00 0.00 0.00 36 1011.0
20260504005503 58 231 0.9 1.7 0.00 0.00 0.00 36 1011.3
20260504005001 58 286 0.9 2.6 0.00 0.00 0.00 37 1011.1
20260504004458 58 265 0.9 1.7 0.00 0.00 0.00 37 1010.8
20260504003955 58 298 0.9 0.9 0.00 0.00 0.00 37 1010.9
20260504003451 58 239 0.9 0.9 0.00 0.00 0.00 37 1010.9
20260504002948 58 283 0.9 0.9 0.00 0.00 0.00 38 1010.8
20260504002445 59 191 3.5 3.5 0.00 0.00 0.00 38 1010.8
20260504001942 59 170 4.3 6.1 0.00 0.00 0.00 37 1010.6
20260504001440 59 208 6.1 11.3 0.00 0.00 0.00 37 1010.4
20260504000936 59 185 1.7 2.6 0.00 0.00 0.00 36 1010.5
20260504000433 59 197 3.5 5.2 0.00 0.00 0.00 38 1010.5
20260503235930 59 193 3.5 6.1 0.00 0.00 0.00 38 1010.4
20260503235428 59 343 0.9 0.9 0.00 0.00 0.00 37 1010.5
20260503234925 59 265 2.6 2.6 0.00 0.00 0.00 35 1010.2
20260503234423 59 266 1.7 1.7 0.00 0.00 0.00 33 1010.0
20260503233921 59 293 0.9 0.9 0.00 0.00 0.00 33 1010.2
20260503233417 60 267 0.9 1.7 0.00 0.00 0.00 33 1010.1
20260503232913 60 262 3.5 5.2 0.00 0.00 0.00 32 1010.0
20260503232411 60 288 3.5 5.2 0.00 0.00 0.00 33 1010.0
20260503231908 60 217 2.6 3.5 0.00 0.00 0.00 32 1009.8
20260503231405 60 292 1.7 2.6 0.00 0.00 0.00 33 1009.8
20260503230901 60 258 4.3 5.2 0.00 0.00 0.00 32 1009.9
20260503230358 60 259 1.7 2.6 0.00 0.00 0.00 33 1009.7
20260503225856 60 263 2.6 3.5 0.00 0.00 0.00 30 1010.0
20260503225352 60 236 2.6 5.2 0.00 0.00 0.00 30 1009.7
20260503224848 60 259 1.7 1.7 0.00 0.00 0.00 31 1009.6
20260503224345 61 250 4.3 6.1 0.00 0.00 0.00 30 1009.8
20260503223843 61 278 3.5 3.5 0.00 0.00 0.00 29 1009.9
20260503223341 62 276 7.8 9.6 0.00 0.00 0.00 28 1009.7
20260503222836 61 290 2.6 3.5 0.00 0.00 0.00 29 1009.9
20260503222335 60 322 3.5 7.0 0.00 0.00 0.00 28 1009.4
20260503221832 60 249 3.5 6.1 0.00 0.00 0.00 29 1009.5
20260503221331 60 313 3.5 3.5 0.00 0.00 0.00 29 1009.7
20260503220826 61 287 3.5 5.2 0.00 0.00 0.00 28 1009.6
20260503220324 61 309 3.5 3.5 0.00 0.00 0.00 28 1009.7
20260503215820 60 170 4.3 5.2 0.00 0.00 0.00 27 1009.8
20260503215318 60 152 2.6 3.5 0.00 0.00 0.00 29 1009.9
20260503214815 60 250 5.2 7.0 0.00 0.00 0.00 28 1009.8
20260503214312 60 234 7.0 7.8 0.00 0.00 0.00 29 1009.8
20260503213810 60 282 6.1 7.8 0.00 0.00 0.00 29 1009.5
20260503213307 60 249 7.0 7.8 0.00 0.00 0.00 29 1009.9
20260503212758 60 243 2.6 3.5 0.00 0.00 0.00 29 1009.7
20260503212256 60 266 3.5 5.2 0.00 0.00 0.00 32 1009.4
20260503211753 60 281 4.3 5.2 0.00 0.00 0.00 29 1009.6
20260503211250 60 276 4.3 7.0 0.00 0.00 0.00 31 1009.4
20260503210744 60 250 6.1 7.8 0.00 0.00 0.00 30 1009.6
20260503210242 59 300 3.5 6.1 0.00 0.00 0.00 31 1009.7
20260503205743 60 272 4.3 5.2 0.00 0.00 0.00 30 1009.4
20260503205239 60 283 5.2 6.1 0.00 0.00 0.00 30 1009.5
20260503204736 60 237 7.8 9.6 0.00 0.00 0.00 31 1009.7
20260503204233 59 174 4.3 6.1 0.00 0.00 0.00 32 1009.3
20260503203731 60 259 3.5 5.2 0.00 0.00 0.00 29 1009.5
20260503203228 59 275 7.8 9.6 0.00 0.00 0.00 30 1009.7
20260503202725 60 227 9.6 13.0 0.00 0.00 0.00 31 1009.8
20260503202223 59 207 4.3 5.2 0.00 0.00 0.00 31 1009.6
20260503201721 59 151 5.2 7.8 0.00 0.00 0.00 32 1009.6
20260503201218 59 256 5.2 7.0 0.00 0.00 0.00 31 1009.6
20260503200714 60 241 5.2 7.0 0.00 0.00 0.00 31 1009.9
20260503200211 59 254 1.7 1.7 0.00 0.00 0.00 32 1009.8
20260503195707 59 275 1.7 2.6 0.00 0.00 0.00 33 1009.7
20260503195205 58 268 4.3 6.1 0.00 0.00 0.00 32 1009.9
20260503194701 58 259 4.3 5.2 0.00 0.00 0.00 33 1009.9
20260503194157 59 277 4.3 7.0 0.00 0.00 0.00 32 1009.9
20260503193654 57 258 3.5 5.2 0.00 0.00 0.00 33 1010.1
20260503193149 58 312 6.1 7.8 0.00 0.00 0.00 33 1009.9
20260503192645 58 310 4.3 7.0 0.00 0.00 0.00 32 1009.9
20260503192141 58 244 7.0 7.8 0.00 0.00 0.00 33 1010.1
20260503191638 58 216 3.5 6.1 0.00 0.00 0.00 33 1010.1
20260503191135 57 199 5.2 7.0 0.00 0.00 0.00 34 1010.1
20260503190632 57 233 8.7 11.3 0.00 0.00 0.00 35 1010.1
20260503190129 58 235 4.3 6.1 0.00 0.00 0.00 34 1010.2
20260503185625 58 259 3.5 5.2 0.00 0.00 0.00 34 1010.1
20260503185120 56 215 6.1 12.2 0.00 0.00 0.00 35 1010.2
20260503184610 55 243 5.2 7.0 0.00 0.00 0.00 37 1010.4
20260503184107 56 261 5.2 7.0 0.00 0.00 0.00 36 1010.5
20260503183603 56 200 4.3 5.2 0.00 0.00 0.00 36 1010.6
20260503183101 55 286 2.6 2.6 0.00 0.00 0.00 37 1010.6
20260503182559 54 253 5.2 7.0 0.00 0.00 0.00 38 1010.8
20260503182057 56 234 6.1 7.8 0.00 0.00 0.00 36 1010.5
20260503181554 55 274 3.5 5.2 0.00 0.00 0.00 38 1010.5
20260503181050 54 248 5.2 7.8 0.00 0.00 0.00 39 1010.9
20260503180547 55 259 4.3 6.1 0.00 0.00 0.00 38 1010.5
20260503180045 54 295 4.3 6.1 0.00 0.00 0.00 38 1010.7
20260503175542 55 296 6.1 7.8 0.00 0.00 0.00 39 1010.7
20260503175039 54 275 5.2 8.7 0.00 0.00 0.00 40 1010.7
20260503174536 54 316 3.5 5.2 0.00 0.00 0.00 39 1010.6
20260503174032 53 280 2.6 2.6 0.00 0.00 0.00 41 1010.4
20260503173527 54 229 6.1 11.3 0.00 0.00 0.00 41 1010.7
20260503173024 53 218 5.2 7.8 0.00 0.00 0.00 40 1010.6
20260503172522 53 239 5.2 7.0 0.00 0.00 0.00 40 1010.6
20260503172018 53 212 5.2 6.1 0.00 0.00 0.00 41 1010.7
20260503171515 53 244 3.5 6.1 0.00 0.00 0.00 40 1010.8
20260503171012 53 260 4.3 5.2 0.00 0.00 0.00 40 1010.7
20260503170508 53 262 3.5 5.2 0.00 0.00 0.00 41 1010.8
20260503150901 52 285 1.7 1.7 0.00 0.00 0.00 40 1011.2
20260503150357 51 295 3.5 5.2 0.00 0.00 0.00 40 1011.0
20260503131250 51 238 3.5 5.2 0.00 0.00 0.00 50 1011.4
20260503130748 50 299 1.7 2.6 0.00 0.00 0.00 52 1011.3
20260503130245 49 278 2.6 2.6 0.00 0.00 0.00 52 1011.5
20260503120211 47 251 3.5 5.2 0.00 0.00 0.00 54 1011.1
20260503110639 46 267 6.1 7.8 0.00 0.00 0.00 57 1010.6
20260503110136 45 318 2.6 2.6 0.00 0.00 0.00 58 1010.8
20260503081446 48 297 6.1 7.8 0.00 0.00 0.00 51 1009.4
20260503080943 48 299 1.7 2.6 0.00 0.00 0.00 52 1009.5
20260503080439 48 294 1.7 1.7 0.00 0.00 0.00 52 1009.5
20260503072910 49 271 2.6 3.5 0.00 0.00 0.00 51 1009.5
20260503072408 49 295 1.7 2.6 0.00 0.00 0.00 50 1009.6
20260503071904 49 293 3.5 5.2 0.00 0.00 0.00 49 1009.3
20260503071401 49 293 3.5 3.5 0.00 0.00 0.00 49 1009.3
20260503070856 49 258 4.3 6.1 0.00 0.00 0.00 49 1009.4
20260503070349 49 286 4.3 5.2 0.00 0.00 0.00 48 1009.4
20260503060309 51 296 1.7 2.6 0.00 0.00 0.00 47 1009.6
20260503054756 51 295 1.7 1.7 0.00 0.00 0.00 46 1009.6
20260503054252 51 296 3.5 3.5 0.00 0.00 0.00 44 1009.7
20260503053749 51 296 1.7 1.7 0.00 0.00 0.00 46 1009.6
20260503053243 52 304 2.6 3.5 0.00 0.00 0.00 46 1009.7
20260503052738 52 298 0.9 0.9 0.00 0.00 0.00 47 1009.6
20260503052236 52 294 0.9 0.9 0.00 0.00 0.00 46 1009.8
20260503051730 52 301 2.6 2.6 0.00 0.00 0.00 46 1010.0
20260503051228 52 305 2.6 3.5 0.00 0.00 0.00 45 1010.0
20260503050725 52 298 1.7 1.7 0.00 0.00 0.00 43 1009.7
20260503050221 52 302 0.0 0.9 0.00 0.00 0.00 43 1010.0
20260503045719 52 281 2.6 2.6 0.00 0.00 0.00 42 1010.0
20260503045216 52 319 1.7 1.7 0.00 0.00 0.00 41 1010.3
20260503044713 53 310 0.9 0.9 0.00 0.00 0.00 42 1009.9
20260503044210 53 289 1.7 2.6 0.00 0.00 0.00 40 1010.1
20260503043707 53 311 1.7 2.6 0.00 0.00 0.00 41 1010.2
20260503043205 53 312 0.9 1.7 0.00 0.00 0.00 40 1010.0
20260503042700 53 294 3.5 5.2 0.00 0.00 0.00 40 1010.0
20260503042156 53 313 0.9 1.7 0.00 0.00 0.00 40 1010.1
20260503041653 53 330 1.7 1.7 0.00 0.00 0.00 41 1010.3
20260503041150 53 300 1.7 1.7 0.00 0.00 0.00 40 1010.0
20260503040648 53 278 3.5 3.5 0.00 0.00 0.00 39 1010.2
20260503040146 53 279 2.6 5.2 0.00 0.00 0.00 39 1010.2
20260503035642 53 280 2.6 3.5 0.00 0.00 0.00 38 1010.1
20260503035139 54 318 1.7 2.6 0.00 0.00 0.00 39 1010.1
20260503034637 54 272 2.6 2.6 0.00 0.00 0.00 39 1010.2
20260503034134 54 303 1.7 1.7 0.00 0.00 0.00 39 1010.2